Regional Weather Roundup
Issued by NWS Bismarck, ND

Home | Current Version | Previous Version | Text Only | Print | Product List | Glossary On
Versions: 1 2 3 4 5 6 7 8 9 10 11 12 13 14 15 16 17 18 19 20 21 22 23 24 25 26 27 28 29 30 31 32 33 34 35 36 37 38 39 40 41 42 43 44 45 46 47 48 49 50
000
ASUS43 KBIS 260410
RWRBIS

NWR BROADCAST TEXT
NATIONAL WEATHER SERVICE BISMARCK ND
1100 PM CDT SUN JUN 25 2017

NOTE: "FAIR" INDICATES FEW OR NO CLOUDS BELOW 12,000 FEET WITH NO
SIGNIFICANT WEATHER AND/OR OBSTRUCTIONS TO VISIBILITY.


CITY           SKY/WX    TMP DP  RH WIND       PRES   REMARKS
WILLISTON      CLEAR     60  45  57 E3        30.23R
MINOT          CLEAR     53  40  61 CALM      30.24R
MINOT AFB      CLEAR     54  40  60 CALM      30.23R
BISMARCK       CLEAR     53  45  74 E3        30.25R
DICKINSON      CLEAR     52  39  61 E9        30.22S
GARRISON         N/A     56  41  57 E7        30.24R
HETTINGER ARPT CLEAR     56  40  55 E9        30.25R
JAMESTOWN      CLEAR     49  41  74 N6        30.23R
HAZEN          FAIR      55  43  62 CALM      30.26R
LINTON         FAIR     N/A N/A N/A SE5       30.26R
MANDAN         FAIR      57  45  62 E7        30.25S
STANLEY        FAIR      54  46  76 E6        30.27R
TIOGA          FAIR      50  48  93 E7        30.26R
WATFORD CITY   FAIR      50  43  76 SE8       30.23R
$$

CITY           SKY/WX    TMP DP  RH WIND       PRES   REMARKS
GRAND FORKS    PTCLDY    50  43  77 W5        30.20R
GRAND FORKS AF CLEAR     45  42  90 W3        30.21R
DEVILS LAKE    CLEAR     50  41  71 CALM      30.24R
FARGO          CLEAR     52  39  61 N6        30.20R
CAVALIER       FAIR      50  45  81 W3        30.20S
GRAFTON        FAIR      54  46  76 NW5       30.22S
GWINNER        CLOUDY    52  48  87 CALM      30.21R
LANGDON        FAIR      48  43  81 CALM      30.23S
ROLLA            N/A     45  43  93 W5        30.24S
$$

CITY           SKY/WX    TMP DP  RH WIND       PRES   REMARKS
ABERDEEN       CLEAR     53  47  79 N5        30.22R
MOBRIDGE       CLEAR     58  44  60 E10       30.20R
BUFFALO          N/A     57  39  51 E9        30.19R
RAPID CITY     CLEAR     61  33  35 NE13      30.22R
GLASGOW        CLEAR     64  35  34 NE12      30.19R
SIDNEY         CLEAR     59  43  55 CALM      30.22R
WOLF POINT     CLEAR     62  37  39 NE7       30.20R
GLENDIVE       CLEAR     64  42  44 NE8       30.22R
MILES CITY     CLEAR     69  31  24 E6        30.19S
BAKER          CLEAR     57  33  40 CALM      30.23S
$$

CITY           SKY/WX    TMP DP  RH WIND       PRES   REMARKS
BILLINGS       PTCLDY    71  32  23 SE8       30.21R
GREAT FALLS    CLEAR     68  40  35 E10       30.15S
REGINA         PTCLDY    57  37  47 NE7       30.26S
ESTEVAN        PTCLDY    50  45  81 NE7       30.24S
$$




USA.gov is the U.S. government's official web portal to all federal, state and local government web resources and services.